Date,TemperatureHighF,TemperatureAvgF,TemperatureLowF,DewpointHighF,DewpointAvgF,DewpointLowF,HumidityHigh,HumidityAvg,HumidityLow,PressureMaxIn,PressureMinIn,WindSpeedMaxMPH,WindSpeedAvgMPH,GustSpeedMaxMPH,PrecipitationSumIn
2014-1-1,49.5,38.1,29.2,30.9,27.5,24.1,90,68,38,30.45,30.18,1,0,5,0.00
2014-1-2,48.0,41.2,34.1,42.3,36.8,30.1,100,85,72,30.18,29.63,2,0,6,0.37
2014-1-3,39.5,24.2,18.8,35.7,11.7,7.8,86,60,40,30.52,29.70,2,0,3,0.00
2014-1-4,36.2,28.4,15.9,23.7,15.5,11.1,88,61,37,30.56,30.33,1,0,5,0.00
2014-1-5,48.6,40.5,33.5,44.6,36.9,24.7,96,87,67,30.33,29.80,1,0,2,0.02
2014-1-6,55.9,39.7,14.0,55.1,31.8,-1.7,100,75,42,30.21,29.64,6,2,14,0.72
2014-1-7,22.2,14.6,7.4,7.3,-1.5,-6.3,67,49,34,30.55,30.21,4,1,13,0.00
2014-1-8,41.3,24.2,12.0,17.5,10.2,5.2,87,59,29,30.66,30.53,1,0,3,0.00
2014-1-9,50.5,41.6,36.6,26.8,21.4,14.8,56,45,24,30.56,30.51,1,0,2,0.00
2014-1-10,40.2,39.0,37.0,39.4,37.9,35.4,97,96,94,30.40,30.14,1,0,3,0.71
2014-1-11,64.9,52.5,38.6,63.8,51.5,37.7,98,96,86,30.13,29.59,5,1,17,1.06
2014-1-12,55.4,46.5,38.6,49.6,35.8,31.7,92,68,43,30.18,29.70,3,0,5,0.00
2014-1-13,59.9,48.3,38.3,42.4,37.1,31.7,84,67,45,30.18,29.97,3,0,9,0.00
2014-1-14,52.6,46.4,37.4,48.3,43.9,36.4,96,91,71,29.99,29.80,1,0,4,0.38
2014-1-15,55.8,41.4,33.1,47.2,36.4,31.8,98,84,54,29.99,29.85,3,0,6,0.03
2014-1-16,42.0,34.9,29.0,33.0,26.3,19.4,95,73,41,30.06,29.94,1,0,6,0.06
2014-1-17,52.1,40.5,28.7,33.9,27.7,22.1,78,61,44,30.04,29.86,2,0,5,0.00
2014-1-18,42.0,31.5,26.7,30.1,18.2,11.6,83,59,40,30.06,29.88,4,1,8,0.00
2014-1-19,50.6,39.3,29.5,29.5,23.6,18.3,69,54,41,30.03,29.92,3,0,6,0.00
2014-1-20,62.0,44.4,33.8,29.3,27.1,24.5,77,55,26,29.93,29.79,4,0,5,0.00
2014-1-21,47.7,36.2,26.2,35.6,29.7,23.4,93,78,60,29.86,29.56,2,1,6,0.00
2014-1-22,27.3,22.9,16.5,24.9,11.4,2.5,93,63,35,30.14,29.86,3,1,6,0.03
2014-1-23,34.2,24.3,13.5,16.1,11.1,3.2,88,59,40,30.50,30.14,3,1,7,0.00
2014-1-24,25.1,17.1,9.3,3.2,-1.0,-4.9,63,46,27,30.66,30.29,4,1,5,0.00
2014-1-25,39.2,29.5,16.5,18.5,8.0,-1.5,55,41,30,30.28,29.67,5,1,10,0.01
2014-1-26,51.3,37.8,21.5,30.3,19.4,13.3,82,51,24,30.00,29.83,3,0,7,0.00
2014-1-27,62.2,47.5,29.9,38.2,30.0,1.4,65,52,29,30.14,29.79,3,1,11,0.00
2014-1-28,29.8,23.3,17.7,17.6,6.4,-2.4,89,52,30,30.37,30.13,3,1,7,0.00
2014-1-29,25.3,19.2,10.7,14.3,7.0,-1.5,88,62,31,30.42,30.22,2,0,7,0.03
2014-1-30,35.5,20.9,5.8,12.1,5.5,2.3,88,56,27,30.49,30.28,3,0,4,0.03
2014-1-31,53.3,31.7,15.0,22.9,15.0,8.4,82,55,21,30.28,30.17,1,0,2,0.00
2014-2-1,57.7,41.5,24.5,34.6,24.5,18.8,86,56,25,30.29,30.10,1,0,6,0.00
2014-2-2,63.8,52.2,41.2,48.5,43.1,34.3,93,72,52,30.10,30.02,2,0,7,0.00
2014-2-3,59.0,48.3,36.6,56.9,45.8,34.5,95,91,83,30.29,29.86,3,1,7,0.32
2014-2-4,40.5,37.5,35.4,37.6,35.2,32.7,96,91,82,30.43,30.14,2,1,6,0.39
2014-2-5,52.1,44.3,37.0,48.7,40.6,29.5,97,88,68,30.14,29.81,3,1,7,0.16
2014-2-6,41.5,36.3,29.6,29.9,25.8,22.6,81,66,50,30.35,30.11,3,0,7,0.00
2014-2-7,47.4,37.6,30.5,30.3,28.2,26.1,89,70,48,30.38,30.28,2,0,5,0.00
2014-2-8,47.3,37.7,31.7,33.2,29.6,27.5,88,74,53,30.32,30.15,2,0,5,0.00
2014-2-9,52.9,40.6,29.7,41.5,34.6,27.2,92,80,63,30.21,29.99,2,0,8,0.00
2014-2-10,39.3,36.0,33.8,34.9,31.4,26.2,95,84,61,30.28,30.05,2,0,7,0.02
2014-2-11,34.0,30.1,23.5,32.7,22.0,16.7,95,72,58,30.44,30.27,4,1,10,0.00
2014-2-12,26.0,23.8,22.0,23.1,17.6,12.6,93,78,57,30.48,29.86,4,2,14,0.00
2014-2-13,35.0,31.3,24.0,33.7,29.8,22.2,96,94,88,29.87,29.48,3,1,6,0.09
2014-2-14,56.4,42.5,31.4,34.1,28.0,21.6,92,60,26,29.81,29.68,3,0,9,0.78
2014-2-15,42.8,37.5,29.9,37.6,28.3,16.8,96,71,42,30.08,29.58,7,1,15,0.21
2014-2-16,49.6,33.8,28.1,29.6,23.1,18.2,87,66,42,30.21,30.03,2,0,7,0.00
2014-2-17,43.2,36.1,28.5,28.3,24.3,22.1,80,63,45,30.42,30.21,5,1,7,0.00
2014-2-18,61.7,45.9,34.6,36.1,28.0,19.6,88,56,20,30.25,30.10,3,0,9,0.01
2014-2-19,70.0,56.4,46.8,59.5,50.4,33.7,97,81,57,30.11,29.89,4,1,10,0.25
2014-2-20,69.7,59.2,47.6,58.8,47.7,37.7,93,66,51,30.21,29.97,4,1,9,0.00
2014-2-21,67.9,57.6,38.4,62.8,53.6,36.6,94,87,76,30.04,29.77,6,1,15,0.28
2014-2-22,64.7,48.1,33.3,39.7,30.2,22.0,95,58,20,30.22,30.04,2,0,4,0.00
2014-2-23,68.4,53.6,38.8,41.7,35.9,27.6,76,53,30,30.13,29.88,3,0,6,0.00
2014-2-24,57.3,48.4,35.7,42.1,27.3,17.1,77,47,23,30.16,29.88,4,1,8,0.00
2014-2-25,49.5,38.8,28.1,27.4,21.0,17.2,77,51,29,30.15,29.99,2,0,4,0.00
2014-2-26,46.9,38.1,29.5,27.8,22.2,15.3,68,53,39,30.01,29.81,2,0,6,0.00
2014-2-27,51.4,37.3,21.7,20.5,13.6,6.5,80,42,17,30.04,29.78,5,1,9,0.00
2014-2-28,41.9,32.7,25.8,15.9,13.4,10.5,58,45,33,30.37,30.04,5,1,11,0.00
2014-3-1,53.6,37.9,26.5,33.4,23.4,14.6,80,56,41,30.40,30.25,1,0,4,0.00
2014-3-2,70.5,53.7,33.1,47.7,40.5,28.9,88,64,40,30.26,29.90,3,1,7,0.00
2014-3-3,59.4,36.0,19.0,48.0,31.5,13.6,93,84,65,30.33,29.82,5,2,13,0.38
2014-3-4,33.5,24.3,13.1,19.3,13.4,8.6,83,64,46,30.43,30.26,4,1,9,0.11
2014-3-5,41.7,33.7,26.9,24.0,19.8,15.9,72,57,41,30.34,30.18,2,0,4,0.00
2014-3-6,39.1,33.3,29.0,30.1,23.5,16.3,92,68,52,30.44,30.18,6,2,12,0.16
2014-3-7,34.2,32.5,30.8,32.9,31.1,29.0,100,94,93,30.19,29.96,0,0,0,1.05
2014-3-8,54.7,51.5,47.7,42.2,41.9,41.5,79,70,62,30.02,30.00,0,0,0,0.36
2014-3-9,63.9,50.8,39.3,42.8,38.9,35.7,92,67,38,30.11,29.99,3,0,8,0.00
2014-3-10,72.8,51.0,31.7,36.8,32.9,27.2,94,58,21,30.04,29.81,3,0,6,0.00
2014-3-11,79.4,62.9,45.2,41.7,37.3,33.6,72,42,20,29.82,29.66,3,0,10,0.00
2014-3-12,66.2,58.4,41.5,59.7,48.3,28.4,92,70,49,29.68,29.22,8,2,15,0.16
2014-3-13,42.4,36.4,29.3,28.5,15.5,6.8,60,44,26,30.26,29.63,7,3,14,0.00
2014-3-14,60.5,43.6,24.4,27.0,18.2,12.9,76,41,17,30.36,30.09,5,1,10,0.00
2014-3-15,70.9,57.4,45.0,38.0,35.0,27.2,70,45,27,30.09,29.94,5,1,13,0.00
2014-3-16,53.9,45.8,36.6,42.5,35.6,29.1,94,70,42,30.06,29.86,5,1,11,0.33
2014-3-17,36.1,31.2,29.6,34.5,29.5,27.7,94,94,92,30.05,29.86,4,2,11,0.17
2014-3-18,36.2,32.1,28.8,35.2,30.8,27.3,96,95,94,30.22,30.01,3,1,6,0.15
2014-3-19,47.3,40.0,33.8,45.4,38.6,32.8,100,95,90,30.22,30.00,2,0,7,0.16
2014-3-20,65.2,52.2,41.7,44.5,33.9,22.7,96,57,20,30.06,29.95,5,1,7,0.00
2014-3-21,68.5,50.6,30.5,34.4,30.0,24.9,87,50,24,30.17,30.05,3,0,10,0.00
2014-3-22,74.2,59.9,48.8,41.8,38.5,33.0,68,47,27,30.07,29.92,4,1,9,0.00
2014-3-23,54.6,45.7,34.7,41.8,37.9,33.2,95,76,50,30.17,29.94,4,1,8,0.16
2014-3-24,50.0,38.0,28.1,35.1,24.6,16.6,96,63,28,30.32,30.13,3,0,6,0.00
2014-3-25,46.6,38.4,32.4,37.0,30.8,25.9,93,75,49,30.12,29.80,3,0,7,0.04
2014-3-26,45.9,35.2,28.5,26.9,18.0,12.3,78,52,28,30.36,29.98,5,2,9,0.00
2014-3-27,58.2,41.3,23.1,36.4,20.6,16.1,83,48,24,30.50,30.30,4,1,11,0.00
2014-3-28,65.9,55.1,46.0,57.9,49.5,37.1,96,82,64,30.30,30.12,4,1,11,0.13
2014-3-29,63.7,59.8,56.1,62.2,58.6,55.0,97,96,94,30.14,29.55,3,0,6,0.28
2014-3-30,59.6,46.9,39.4,57.9,36.2,30.8,94,67,47,29.97,29.56,7,3,14,0.01
2014-3-31,71.5,54.9,39.8,33.4,27.9,22.3,69,39,18,30.12,29.97,4,1,9,0.00
2014-4-1,80.9,61.1,41.0,40.7,34.7,29.7,82,43,18,30.16,30.00,2,0,6,0.00
2014-4-2,87.0,70.6,54.2,46.3,39.3,33.8,52,34,18,30.08,29.97,3,0,7,0.00
2014-4-3,77.3,63.2,49.7,54.5,47.5,38.6,79,58,35,30.10,29.90,2,0,6,0.00
2014-4-4,80.2,68.6,55.5,59.2,53.6,47.7,78,60,37,29.92,29.70,6,1,12,0.00
2014-4-5,70.0,61.6,51.8,56.8,39.6,31.5,74,46,25,30.09,29.78,4,1,8,0.00
2014-4-6,59.5,52.0,43.4,40.1,33.3,26.2,65,50,34,30.24,30.09,5,1,10,0.00
2014-4-7,61.2,48.4,40.6,59.5,45.5,39.1,97,90,57,30.11,29.67,4,1,8,1.78
2014-4-8,67.1,61.1,52.6,59.9,50.6,39.3,94,71,42,29.70,29.57,3,1,7,0.01
2014-4-9,67.0,56.6,47.8,47.2,40.4,36.6,85,57,33,30.11,29.70,3,0,6,0.01
2014-4-10,73.9,57.6,38.0,42.9,38.2,34.2,92,54,26,30.29,30.11,4,1,11,0.00
2014-4-11,78.6,65.9,52.3,49.1,43.7,39.5,66,47,27,30.20,30.03,6,1,15,0.00
2014-4-12,81.1,67.9,54.0,54.4,50.3,47.5,86,56,32,30.22,30.10,4,1,7,0.00
2014-4-13,81.9,70.1,58.4,59.1,55.5,52.2,83,61,44,30.20,30.06,4,1,11,0.00
2014-4-14,76.1,67.7,61.9,62.5,59.1,55.0,92,75,51,30.09,29.83,5,1,11,0.01
2014-4-15,70.2,59.0,38.3,65.3,55.6,29.7,95,88,70,30.04,29.59,6,2,11,1.05
2014-4-16,54.1,42.2,31.0,31.2,26.1,22.1,78,55,32,30.49,30.03,4,1,10,0.00
2014-4-17,62.7,46.6,30.3,40.9,31.5,25.9,93,60,25,30.60,30.45,4,1,12,0.00
2014-4-18,60.8,49.1,37.4,47.9,40.7,35.1,93,75,51,30.49,30.27,2,0,5,0.14
2014-4-19,57.0,50.0,45.1,48.0,45.5,43.5,95,85,69,30.26,30.18,4,1,10,0.43
2014-4-20,66.7,57.2,48.0,46.1,39.8,34.7,79,54,36,30.31,30.22,7,2,13,0.00
2014-4-21,75.9,56.6,39.9,41.2,34.6,21.1,84,50,15,30.23,29.93,2,0,4,0.00
2014-4-22,82.2,63.7,50.2,57.1,48.9,38.2,83,61,33,29.93,29.67,4,0,7,0.00
2014-4-23,71.4,61.2,53.8,56.7,39.0,27.4,93,50,20,30.00,29.70,4,1,8,0.00
2014-4-24,71.9,56.3,37.9,44.5,37.1,31.8,90,53,25,30.17,30.00,2,0,4,0.00
2014-4-25,79.2,60.7,48.1,67.7,54.5,40.6,94,81,59,30.01,29.66,4,0,7,0.27
2014-4-26,81.3,65.4,46.6,54.3,47.8,43.6,95,58,27,30.01,29.85,3,0,8,0.00
2014-4-27,86.7,69.8,53.4,56.9,50.2,45.3,81,53,25,30.02,29.91,2,0,5,0.00
2014-4-28,66.4,57.7,53.4,58.1,51.3,43.7,90,79,67,30.01,29.93,2,0,5,0.00
2014-4-29,57.2,53.9,50.8,56.4,52.6,49.4,97,95,90,30.06,29.94,2,0,7,0.02
2014-4-30,81.1,68.7,56.9,72.4,65.1,56.1,98,89,70,30.06,29.87,5,1,15,0.30
2014-5-1,81.0,70.7,62.3,66.7,62.1,57.7,91,76,46,29.89,29.76,4,1,8,0.00
2014-5-2,70.4,60.2,47.5,57.1,45.6,39.6,91,61,37,29.96,29.82,2,0,5,0.00
2014-5-3,76.8,62.7,52.2,53.1,47.6,42.0,91,62,30,29.92,29.84,2,0,7,0.00
2014-5-4,85.6,65.8,47.9,54.5,49.5,45.2,92,61,29,30.01,29.81,3,0,11,0.00
2014-5-5,72.8,61.7,53.8,57.6,52.4,48.7,87,72,56,30.04,29.85,2,0,8,0.00
2014-5-6,82.2,65.7,54.4,65.0,57.6,50.5,93,77,51,30.00,29.87,1,0,5,0.00
2014-5-7,73.9,64.8,57.3,65.0,60.2,55.6,94,85,72,30.15,30.00,1,0,3,0.00
2014-5-8,90.9,72.4,56.1,64.3,57.9,52.5,97,67,28,30.19,30.07,2,0,7,0.00
2014-5-9,88.9,72.5,60.7,66.9,61.4,56.7,92,71,39,30.14,30.00,4,0,16,0.05
2014-5-10,85.0,68.5,60.5,71.4,63.2,58.8,95,84,56,30.10,29.99,6,0,9,0.30
2014-5-11,86.0,69.8,57.3,66.5,60.1,56.1,97,75,38,30.17,30.05,2,0,4,0.01
2014-5-12,91.6,72.6,56.4,68.6,61.7,55.0,97,73,36,30.19,30.09,1,0,7,0.00
2014-5-13,93.8,77.3,63.2,72.4,66.3,61.4,96,73,39,30.14,30.06,1,0,4,0.00
2014-5-14,89.2,76.8,66.6,71.5,66.4,61.9,94,72,49,30.15,30.04,1,0,4,0.00
2014-5-15,76.4,68.5,65.6,70.1,65.8,62.6,96,91,74,30.10,29.83,3,0,7,2.74
2014-5-16,71.7,62.3,52.0,67.1,53.2,46.9,96,75,44,30.04,29.81,2,0,7,0.33
2014-5-17,70.5,58.5,44.1,52.7,45.3,40.3,90,64,38,30.19,30.04,2,0,8,0.00
2014-5-18,68.3,59.6,47.8,52.0,46.7,43.6,92,64,43,30.25,30.18,2,0,4,0.00
2014-5-19,74.0,58.5,43.3,53.5,46.6,42.0,97,70,35,30.34,30.23,1,0,5,0.00
2014-5-20,80.2,64.9,47.6,60.0,54.1,45.3,94,71,44,30.29,30.09,2,0,7,0.00
2014-5-21,87.6,73.5,60.1,66.6,62.3,57.8,94,71,43,30.09,29.93,2,0,7,0.00
2014-5-22,89.0,75.9,65.4,67.7,64.0,61.9,89,69,44,29.95,29.85,1,0,5,0.00
2014-5-23,82.0,71.0,61.7,66.1,61.3,49.6,95,73,49,30.03,29.91,1,0,4,0.00
2014-5-24,80.4,65.8,51.4,57.0,51.6,48.4,92,63,35,30.14,30.01,2,0,4,0.00
2014-5-25,81.7,66.9,53.1,63.7,57.1,51.2,96,74,42,30.21,30.13,1,0,4,0.00
2014-5-26,87.0,72.8,59.1,68.2,63.4,56.6,95,75,50,30.21,30.05,1,0,6,0.00
2014-5-27,90.6,73.8,66.0,72.1,67.5,64.0,96,83,48,30.09,29.95,4,0,9,1.25
2014-5-28,90.0,76.1,64.8,74.4,68.9,63.9,97,81,51,30.01,29.92,1,0,2,0.00
2014-5-29,73.3,68.5,65.1,67.4,65.0,63.0,94,89,81,30.11,29.98,1,0,5,0.00
2014-5-30,72.9,68.1,63.2,68.0,65.1,61.6,96,90,81,30.15,30.05,1,0,4,0.01
2014-5-31,81.4,69.8,61.6,65.6,60.3,55.7,97,75,44,30.22,30.12,2,0,8,0.00
2014-6-1,78.4,66.0,55.9,59.1,54.4,51.1,92,69,42,30.35,30.22,1,0,8,0.00
2014-6-2,82.9,66.8,51.1,61.5,56.3,49.1,95,72,44,30.30,30.12,1,0,0,0.00
2014-6-3,86.8,70.2,55.3,71.9,62.8,53.7,96,79,53,30.13,29.94,1,0,3,0.00
2014-6-4,90.9,75.1,65.5,73.9,68.2,63.4,95,81,48,29.94,29.74,4,0,4,0.57
2014-6-5,87.7,78.4,68.9,74.9,69.8,62.5,89,76,52,29.86,29.70,1,0,5,0.00
2014-6-6,83.1,71.9,62.2,67.8,63.5,57.9,92,76,53,29.97,29.83,1,0,4,0.00
2014-6-7,86.3,72.2,59.5,68.3,63.9,58.1,97,78,48,30.05,29.95,1,0,2,0.00
2014-6-8,84.9,73.6,64.1,69.7,66.0,61.8,94,78,55,29.98,29.87,1,0,8,0.00
2014-6-9,84.8,74.7,68.7,73.5,68.6,64.0,94,82,64,29.92,29.85,1,0,3,0.12
2014-6-10,93.3,77.6,65.0,76.0,70.0,63.8,97,80,49,29.95,29.88,1,0,1,0.00
2014-6-11,92.9,81.3,66.2,73.9,69.6,64.4,94,70,49,29.96,29.82,4,0,4,0.04
2014-6-16,81.6,76.6,73.7,71.8,70.9,69.9,88,83,72,30.12,30.08,0,0,11,0.00
2014-6-17,96.0,81.0,68.1,76.6,70.8,66.0,94,74,41,30.15,30.05,0,0,3,0.00
2014-6-18,97.1,82.0,68.8,76.2,70.5,66.3,93,71,39,30.10,30.01,1,0,4,0.00
2014-6-19,96.5,78.9,70.0,76.2,70.6,66.3,95,78,43,30.08,29.98,5,0,6,0.23
2014-6-20,92.4,76.9,67.4,76.4,70.6,66.2,97,83,55,30.04,29.92,1,0,4,0.06
2014-6-21,89.7,77.5,67.7,75.8,71.2,66.5,97,83,57,29.94,29.79,1,0,2,0.01
2014-6-22,81.9,73.3,68.9,71.6,69.1,66.8,95,87,70,30.00,29.82,2,0,7,0.00
2014-6-23,85.5,73.8,63.8,69.0,66.1,62.3,96,79,54,30.13,30.00,1,0,7,0.00
2014-6-24,87.9,75.6,65.8,73.3,68.0,63.1,93,78,58,30.15,30.00,1,0,3,0.00
2014-6-25,93.9,79.0,71.8,75.2,71.7,69.4,94,80,49,30.02,29.86,1,0,3,0.00
2014-6-26,92.7,79.6,69.0,75.3,70.3,67.2,95,76,47,30.04,29.90,1,0,7,1.82
2014-6-27,86.2,75.0,69.0,76.1,70.5,67.4,97,87,62,30.12,29.97,3,0,5,0.09
2014-6-28,85.0,75.6,68.1,72.3,69.2,63.4,95,81,62,30.23,30.12,2,0,5,0.00
2014-6-29,85.5,72.3,59.2,70.4,62.8,57.5,95,75,45,30.25,30.12,1,0,3,0.00
2014-6-30,91.8,77.0,64.2,75.0,68.7,62.1,94,77,51,30.13,29.95,1,0,5,0.00
2014-7-1,92.8,80.7,71.2,77.0,72.6,68.2,92,78,57,29.99,29.87,1,0,4,0.00
2014-7-2,96.4,83.9,73.4,78.9,74.4,70.9,93,75,49,29.95,29.88,1,0,2,0.00
2014-7-3,91.5,78.9,72.8,77.6,72.9,69.9,93,82,58,30.00,29.87,1,0,3,0.02
2014-7-4,85.6,75.7,67.7,69.9,62.9,55.2,91,66,43,30.18,29.90,1,0,7,0.00
2014-7-5,84.3,69.7,55.8,62.2,55.6,50.9,93,65,35,30.30,30.18,1,0,4,0.00
2014-7-6,89.8,72.8,59.0,68.4,61.3,55.6,94,71,38,30.20,30.02,1,0,5,0.00
2014-7-7,92.0,79.1,65.6,73.2,67.1,62.1,95,70,42,30.05,29.91,1,0,6,0.00
2014-7-8,94.2,80.6,71.4,71.6,67.7,63.3,90,68,37,30.01,29.85,1,0,4,0.00
2014-7-9,88.2,77.0,70.4,75.2,70.2,65.8,95,80,61,30.02,29.92,1,0,1,0.11
2014-7-10,83.0,73.7,69.3,74.4,70.6,68.1,97,91,73,30.11,29.99,1,0,6,0.11
2014-7-11,87.1,75.4,69.5,73.2,69.6,67.4,95,84,58,30.20,30.09,0,0,4,0.00
2014-7-12,91.8,77.2,65.0,73.8,68.7,63.8,97,78,46,30.23,30.12,1,0,4,0.00
2014-7-13,95.1,80.8,69.6,74.8,70.3,65.6,95,73,46,30.14,29.98,1,0,6,0.00
2014-7-14,96.9,82.9,72.4,77.8,72.0,66.3,94,72,43,30.01,29.83,1,0,7,0.00
2014-7-15,92.2,77.4,70.8,77.1,72.0,68.7,96,84,57,29.87,29.72,3,0,8,0.29
2014-7-16,83.1,72.5,64.8,70.0,66.8,62.7,96,84,53,29.94,29.78,1,0,8,0.02
2014-7-17,83.9,70.9,57.3,65.6,61.7,55.9,95,75,46,30.11,29.94,2,0,6,0.00
2014-7-18,85.4,72.6,61.6,67.0,62.6,59.2,96,74,42,30.20,30.11,1,0,6,0.00
2014-7-19,82.7,72.0,64.9,66.3,63.0,57.0,91,75,44,30.18,30.10,1,0,5,0.00
2014-7-20,78.4,71.1,64.7,72.3,67.8,62.9,96,89,78,30.14,30.06,0,0,4,0.15
2014-7-21,77.2,73.9,71.4,74.3,72.2,69.9,97,95,89,30.16,30.06,0,0,5,0.96
2014-7-22,83.7,75.1,68.9,76.2,71.7,67.7,97,89,74,30.18,30.08,1,0,8,0.01
2014-7-23,94.5,79.3,68.0,77.4,72.4,66.8,97,82,53,30.10,29.90,1,0,5,0.00
2014-7-24,89.5,75.0,67.6,76.9,71.4,66.4,97,89,60,29.97,29.82,2,0,7,2.12
2014-7-25,83.1,73.5,67.4,72.6,68.7,66.5,97,86,65,30.07,29.97,1,0,1,0.01
2014-7-26,90.3,76.8,66.8,76.7,71.1,65.6,98,84,59,30.04,29.91,0,0,1,0.00
2014-7-27,84.7,76.7,70.6,77.5,72.9,69.1,97,88,75,29.97,29.74,1,0,1,0.52
2014-7-28,86.5,76.9,64.6,73.8,66.7,62.1,94,73,47,29.88,29.72,2,0,7,0.04
2014-7-29,83.5,70.2,59.5,69.0,61.4,57.1,96,76,45,29.99,29.86,1,0,2,0.00
2014-7-30,82.2,69.6,60.6,70.0,65.0,59.5,97,86,61,30.09,29.99,1,0,6,0.15
2014-7-31,83.0,72.1,63.2,72.4,67.7,62.3,98,87,61,30.17,30.08,0,0,4,0.24
2014-8-1,71.1,66.6,63.1,68.9,65.5,62.2,97,96,92,30.17,30.09,2,0,4,0.91
2014-8-2,68.8,65.8,62.5,67.6,64.8,61.6,100,96,93,30.15,30.08,1,0,4,0.04
2014-8-3,83.1,71.7,65.0,73.2,68.1,64.1,98,89,66,30.14,30.04,0,0,1,0.00
2014-8-4,84.6,74.4,67.2,73.3,69.5,66.0,97,86,63,30.12,30.03,1,0,1,0.00
2014-8-5,89.6,75.4,65.2,74.3,68.9,64.1,98,82,50,30.07,29.96,1,0,4,0.00
2014-8-6,90.0,77.1,67.5,74.6,69.1,64.0,96,79,46,29.99,29.90,0,0,4,0.02
2014-8-7,86.0,75.1,66.5,74.0,69.3,65.3,97,84,59,30.03,29.92,1,0,4,0.01
2014-8-8,79.8,72.5,67.2,71.9,68.8,65.7,97,89,68,30.13,30.03,0,0,1,0.00
2014-8-9,71.0,66.5,62.8,68.8,65.0,61.3,97,95,92,30.14,30.05,0,0,2,0.71
2014-8-10,77.2,69.8,65.0,71.3,67.3,64.1,97,92,78,30.14,30.06,1,0,3,0.03
2014-8-11,82.0,73.4,69.0,73.2,69.8,67.2,96,89,71,30.09,29.97,0,0,3,0.23
2014-8-12,87.8,74.1,68.5,78.4,71.4,67.3,97,92,70,29.98,29.75,2,0,4,1.51
2014-8-13,80.2,71.6,62.1,70.6,65.6,60.3,98,83,57,29.98,29.81,1,0,4,0.00
2014-8-14,84.0,69.8,56.6,67.5,61.6,55.5,98,78,45,30.06,29.94,1,0,3,0.00
2014-8-15,86.6,72.6,60.5,71.8,65.5,59.4,97,80,54,30.05,29.94,1,0,4,0.00
2014-8-16,88.8,75.5,65.6,73.7,67.9,62.7,96,80,49,30.04,29.97,0,0,1,0.00
2014-8-17,88.8,76.9,68.2,75.1,70.0,67.0,97,81,51,30.01,29.94,0,0,3,0.00
2014-8-18,86.5,74.7,70.1,76.9,71.7,68.7,97,91,71,29.95,29.78,0,0,1,0.16
2014-8-19,87.1,76.0,69.0,75.6,71.6,68.1,98,87,63,29.89,29.77,1,0,4,0.01
2014-8-20,89.4,76.7,69.5,80.2,72.9,68.3,97,89,64,30.02,29.88,0,0,0,0.05
2014-8-21,91.4,79.0,69.9,76.7,72.6,68.8,97,83,54,30.08,29.98,1,0,4,0.00
2014-8-22,89.3,78.6,69.4,78.0,73.6,68.2,97,86,64,30.03,29.93,1,0,4,0.01
2014-8-23,83.2,76.3,72.1,77.4,73.5,69.6,97,91,78,30.00,29.90,1,0,8,0.25
2014-8-24,78.2,72.3,65.3,69.6,67.0,62.3,94,84,65,30.13,29.98,2,0,6,0.00
2014-8-25,79.5,68.3,59.2,65.7,61.7,57.9,97,81,57,30.14,30.09,2,0,9,0.00
2014-8-26,81.4,66.9,57.3,68.2,61.8,56.2,97,85,57,30.18,30.09,2,0,8,0.01
2014-8-27,86.6,70.5,57.9,68.6,62.8,56.8,98,80,42,30.10,29.97,1,0,3,0.00
2014-8-28,93.0,76.2,63.5,77.7,69.6,62.0,97,82,53,30.01,29.95,1,0,4,0.00
2014-8-29,79.8,73.9,69.4,73.2,70.5,67.3,95,89,77,30.17,30.01,1,0,5,0.00
2014-8-30,90.3,78.7,70.8,76.7,72.2,69.3,96,82,55,30.22,30.10,1,0,4,0.00
2014-8-31,91.1,79.7,71.9,76.9,73.4,70.2,96,82,59,30.18,30.03,1,0,4,0.00
2014-9-1,92.9,80.4,70.8,77.4,73.0,69.6,97,80,52,30.09,30.00,1,0,1,0.00
2014-9-2,95.5,79.8,69.4,77.8,71.8,67.9,96,79,48,30.06,29.91,2,0,4,0.00
2014-9-3,90.8,79.0,69.9,75.7,71.8,68.4,97,80,55,30.11,29.96,1,0,4,0.00
2014-9-4,86.4,74.8,70.4,77.8,72.0,69.2,97,92,71,30.19,30.09,0,0,1,1.00
2014-9-5,91.7,77.4,69.6,79.1,73.3,68.7,98,88,56,30.20,30.07,0,0,6,0.00
2014-9-6,90.6,78.4,69.7,76.4,72.1,68.5,97,83,57,30.09,29.92,0,0,5,0.01
2014-9-7,79.9,73.3,69.0,71.7,69.3,66.9,96,87,74,30.11,29.96,1,0,6,0.00
2014-9-8,70.5,67.4,65.0,68.4,66.1,63.8,97,96,88,30.13,30.04,3,0,9,1.11
2014-9-9,74.7,67.8,63.6,70.2,66.1,62.7,97,94,85,30.14,30.07,1,0,6,0.02
2014-9-10,80.5,72.0,67.3,72.4,68.6,66.1,97,90,72,30.14,30.03,0,0,3,0.00
2014-9-11,88.8,75.0,65.2,77.3,70.7,64.3,98,87,65,30.05,29.92,2,0,7,0.66
2014-9-12,78.9,72.6,68.9,71.4,69.2,67.6,98,90,73,30.11,29.97,2,0,6,0.00
2014-9-13,77.0,70.3,65.1,72.1,68.1,60.8,97,93,82,30.19,30.06,1,0,5,0.02
2014-9-14,69.5,64.7,61.4,61.7,59.0,55.7,93,82,71,30.29,30.19,1,0,6,0.00
2014-9-15,75.7,67.2,61.5,67.5,63.3,59.5,95,88,70,30.25,30.10,0,0,0,0.00
2014-9-16,82.0,72.3,65.4,70.2,66.6,64.2,97,84,57,30.10,29.94,1,0,3,0.00
2014-9-17,78.7,68.8,63.3,67.0,64.4,61.5,96,87,65,30.01,29.92,2,0,6,0.00
2014-9-18,79.3,68.1,58.2,67.7,63.3,57.1,98,86,57,30.06,29.94,0,0,2,0.01
2014-9-19,77.5,67.8,62.1,66.7,63.0,60.7,96,86,64,30.25,30.06,1,0,2,0.00
2014-9-20,80.3,67.1,56.7,64.3,60.4,55.7,97,81,51,30.25,30.02,1,0,6,0.01
2014-9-21,85.5,71.2,59.7,71.4,64.3,58.6,97,81,54,30.01,29.78,1,0,7,0.01
2014-9-22,74.6,67.1,60.0,66.5,57.8,52.7,95,74,53,30.17,29.86,2,0,10,0.00
2014-9-23,60.3,57.4,53.6,58.2,52.0,49.0,95,82,74,30.35,30.16,2,0,6,0.04
2014-9-24,62.2,57.0,53.0,61.0,55.6,51.1,96,95,92,30.35,30.25,3,0,9,0.77
2014-9-25,67.1,63.7,61.0,63.9,61.9,60.1,97,94,88,30.28,30.19,2,0,6,0.07
2014-9-26,75.1,65.4,59.2,65.3,62.2,58.0,97,90,68,30.25,30.17,1,0,7,0.03
2014-9-27,77.3,63.8,54.2,63.6,58.7,53.4,98,85,59,30.25,30.17,1,0,7,0.01
2014-9-28,78.4,63.7,52.9,66.9,59.2,51.9,98,87,60,30.22,30.09,1,0,3,0.01
2014-9-29,67.1,64.2,61.7,65.9,63.1,60.5,97,96,95,30.08,29.95,0,0,0,0.26
2014-9-30,79.7,66.8,60.9,69.1,63.9,59.8,98,91,67,29.97,29.86,0,0,3,0.00
2014-10-1,78.4,64.8,56.7,69.3,62.2,55.9,98,92,67,30.05,29.92,0,0,0,0.01
2014-10-2,82.3,67.7,58.2,71.5,64.2,57.4,98,89,61,30.13,30.03,0,0,0,0.00
2014-10-3,81.6,70.4,62.7,69.3,65.5,61.6,97,86,56,30.07,29.75,1,0,5,0.01
2014-10-4,71.5,62.8,45.5,69.1,52.0,37.5,95,70,36,29.91,29.68,2,0,11,0.00
2014-10-5,65.0,48.1,37.4,45.9,40.7,35.9,96,79,39,30.05,29.87,1,0,5,0.00
2014-10-6,74.3,58.1,43.8,52.8,47.5,41.9,94,71,43,30.11,30.00,2,0,10,0.00
2014-10-7,77.8,64.5,52.1,60.1,55.9,50.2,95,75,51,30.13,29.97,1,0,5,0.00
2014-10-8,83.2,67.8,55.7,64.9,60.1,53.2,96,78,47,30.07,29.93,2,0,3,0.00
2014-10-9,80.6,63.1,49.0,62.1,53.3,47.5,96,74,40,30.18,30.07,0,0,3,0.00
2014-10-10,81.1,68.4,57.1,71.6,63.2,55.1,96,85,64,30.11,29.97,2,0,8,1.08
2014-10-11,82.5,68.1,57.7,73.1,65.4,55.4,97,92,66,30.13,29.94,2,0,9,0.15
2014-10-12,59.0,57.0,55.0,58.2,55.7,53.4,100,96,92,30.26,30.11,1,0,4,0.14
2014-10-13,77.2,66.0,59.1,71.3,64.0,58.2,98,93,79,30.28,30.15,0,0,0,0.01
2014-10-14,77.8,72.0,67.8,73.0,69.9,66.6,97,93,84,30.16,29.87,3,1,13,0.94
2014-10-15,73.2,63.8,56.0,70.7,61.3,54.9,97,92,76,29.90,29.79,2,0,7,1.44
2014-10-16,70.9,58.3,51.0,58.2,53.9,49.9,97,87,59,29.86,29.77,1,0,2,0.01
2014-10-17,73.9,60.2,48.1,58.0,53.1,47.0,100,80,52,29.94,29.80,1,0,4,0.01
2014-10-18,68.0,59.6,53.5,51.8,48.6,46.7,79,67,55,29.93,29.80,1,0,3,0.00
2014-10-19,64.8,52.9,42.1,48.1,44.4,40.8,95,75,44,30.15,29.93,2,0,6,0.00
2014-10-20,69.1,53.4,40.4,52.7,46.5,39.4,97,80,50,30.18,29.99,1,0,5,0.00
2014-10-21,71.4,59.3,48.4,56.7,50.4,43.5,97,75,49,29.99,29.84,1,0,6,0.01
2014-10-22,57.2,49.0,44.9,44.7,43.0,41.2,87,80,63,30.03,29.94,2,0,5,0.00
2014-10-30,61.0,49.5,45.9,47.7,44.4,42.6,90,83,57,30.02,29.99,0,0,0,0.00
2014-10-31,59.5,48.3,38.6,48.8,43.0,37.0,95,83,59,30.02,29.77,1,0,4,0.01
2014-11-1,50.3,46.7,42.3,46.3,42.7,35.9,100,86,70,29.97,29.74,4,1,9,0.58
2014-11-2,51.2,43.5,34.3,35.9,29.0,25.6,80,58,37,30.34,29.97,3,1,10,0.00
2014-11-3,65.4,45.1,30.0,36.5,30.1,20.1,93,62,18,30.46,30.33,1,0,10,0.00
2014-11-4,67.5,54.5,42.1,41.3,37.1,31.6,80,54,28,30.36,30.23,2,0,10,0.00
2014-11-5,69.4,57.6,48.8,52.2,45.6,38.6,88,66,43,30.30,30.13,1,0,10,0.00
2014-11-6,63.9,58.8,47.8,61.2,55.9,40.7,96,90,76,30.13,29.73,3,0,10,0.38
2014-11-7,57.6,46.7,35.7,42.4,38.5,33.8,93,75,46,30.09,29.85,3,0,10,0.00
2014-11-8,57.6,44.2,30.5,42.6,36.5,29.5,97,77,49,30.13,29.98,1,0,10,0.00
2014-11-9,59.2,48.2,39.0,45.7,41.8,37.7,96,80,54,30.06,29.95,1,0,4,0.00
2014-11-10,64.0,47.5,34.8,51.0,40.9,33.8,98,81,46,30.17,30.06,2,0,7,0.00
2014-11-11,72.5,54.9,41.0,59.9,50.4,39.7,97,86,62,30.09,29.92,2,0,5,0.01
2014-11-12,74.2,58.8,43.4,58.6,48.2,39.0,98,71,45,30.06,29.92,2,0,2,0.00
2014-11-13,54.6,48.4,41.7,41.1,37.9,33.7,84,67,57,30.09,29.99,2,0,10,0.00
2014-11-14,42.1,36.1,27.7,33.3,22.9,16.5,82,60,40,30.36,30.07,3,0,11,0.00
2014-11-15,43.1,32.0,22.9,23.8,18.9,16.1,84,61,35,30.50,30.36,2,0,7,0.00
2014-11-16,52.0,40.2,26.5,40.7,30.2,22.3,91,69,40,30.43,30.08,1,0,5,0.00
2014-11-17,60.5,48.4,38.9,59.9,46.6,32.9,98,94,76,30.08,29.61,3,0,11,1.01
2014-11-18,38.8,30.5,22.4,33.2,18.1,10.9,87,61,38,30.36,29.90,3,1,11,0.00
2014-11-19,40.4,30.2,18.5,19.6,15.1,10.3,92,56,33,30.45,30.24,4,0,10,0.00
2014-11-20,56.2,42.1,29.6,31.9,26.1,18.3,82,55,35,30.24,30.03,4,0,9,0.00
2014-11-21,43.6,35.2,26.1,29.8,19.6,12.2,82,56,29,30.58,30.17,3,0,8,0.00
2014-11-22,52.2,35.3,21.1,26.2,20.0,15.5,87,59,26,30.62,30.36,1,0,7,0.00
2014-11-23,62.6,47.9,32.5,61.4,43.3,22.1,97,84,67,30.36,29.73,4,0,8,0.43
2014-11-24,71.5,64.8,58.9,63.7,60.6,57.1,96,87,69,29.89,29.72,4,1,12,0.01
2014-11-25,64.9,57.0,46.8,62.2,50.0,41.0,95,78,59,30.12,29.88,1,0,5,0.11
2014-11-26,47.6,42.3,34.0,46.5,41.0,33.0,97,95,93,30.08,29.92,4,1,10,1.19
2014-11-27,43.4,39.2,33.7,41.5,36.8,26.6,97,91,71,30.29,30.02,2,0,6,0.38
2014-11-28,41.9,33.4,27.8,26.5,24.5,22.1,88,71,46,30.42,30.28,2,0,7,0.00
2014-11-29,52.7,39.8,27.4,32.4,29.0,23.5,90,68,41,30.36,30.25,2,0,8,0.00
2014-11-30,64.9,49.7,34.7,50.7,41.2,30.8,89,73,57,30.32,30.21,4,0,9,0.00
2014-12-1,72.8,58.2,48.1,52.5,48.5,43.4,92,72,47,30.36,30.25,2,0,8,0.00
2014-12-2,53.9,45.1,40.6,50.9,42.6,39.5,96,91,83,30.47,30.32,4,0,11,0.00
2014-12-3,60.6,48.5,40.3,55.5,46.9,39.3,98,94,83,30.36,30.17,2,0,8,0.01
2014-12-4,52.2,45.7,37.8,46.8,37.4,32.5,96,75,48,30.45,30.29,4,0,8,0.01
2014-12-5,49.9,45.8,41.5,42.6,38.7,34.8,89,77,67,30.51,30.36,1,0,4,0.00
2014-12-6,53.5,50.1,45.1,52.5,48.1,42.0,97,93,84,30.36,30.05,4,0,12,0.11
2014-12-7,49.8,44.1,34.8,47.9,32.3,23.9,93,65,41,30.48,30.15,6,2,22,0.00
2014-12-8,41.2,36.9,33.2,35.0,29.3,22.2,95,74,60,30.48,30.19,2,0,10,0.20
2014-12-9,43.2,39.4,34.5,42.1,38.3,33.3,96,96,93,30.19,29.94,1,0,7,0.53
2014-12-10,47.7,39.3,30.1,38.9,32.2,26.7,95,77,51,30.03,29.95,4,1,9,0.01
2014-12-11,45.9,35.6,28.1,27.0,24.3,17.3,85,65,40,30.16,30.00,3,0,7,0.00
2014-12-12,54.2,40.8,29.8,29.7,22.3,18.4,78,50,27,30.25,30.12,4,0,9,0.00
2014-12-13,57.4,43.8,32.6,30.7,26.5,20.6,79,52,33,30.18,30.04,2,0,7,0.00
2014-12-14,56.6,42.9,30.0,38.6,33.1,27.1,92,70,48,30.10,30.01,2,0,8,0.00
2014-12-15,57.7,43.0,30.9,42.2,36.5,29.3,96,79,54,30.17,30.07,2,0,6,0.00
2014-12-16,49.8,44.6,36.7,48.7,43.0,34.3,96,94,90,30.10,29.90,2,0,7,0.07
2014-12-17,56.9,46.0,38.2,42.8,37.9,31.8,93,75,49,30.13,30.01,2,0,7,0.00
2014-12-18,46.1,39.3,32.0,33.1,29.3,25.1,86,69,45,30.20,30.09,2,0,9,0.00
2014-12-19,49.6,40.9,33.8,32.5,28.2,23.5,85,62,44,30.25,30.13,2,0,5,0.00
2014-12-20,36.9,34.6,32.1,34.5,31.2,26.8,95,87,75,30.34,30.24,3,0,6,0.03
2014-12-21,47.9,40.2,34.9,39.2,35.7,33.4,96,85,70,30.35,30.25,2,0,5,0.00
2014-12-22,40.0,36.2,34.6,35.2,34.1,32.9,96,92,78,30.26,30.08,2,1,11,0.28
2014-12-26,57.0,44.2,38.8,37.7,35.6,34.3,86,73,47,30.35,30.30,0,0,1,0.01
2014-12-27,62.5,48.3,34.0,43.1,38.2,32.2,95,71,44,30.36,30.21,2,0,5,0.00
2014-12-28,60.0,55.6,49.8,55.7,53.2,48.7,96,92,85,30.08,29.99,2,0,12,0.01
2014-12-29,52.1,46.3,38.4,51.3,45.3,37.4,100,96,95,30.23,30.05,3,0,8,0.48
2014-12-30,39.7,35.3,27.8,37.5,33.4,26.6,96,93,80,30.47,30.20,2,0,7,0.05
2014-12-31,42.1,32.6,27.1,30.1,25.9,22.9,96,79,47,30.50,30.38,2,0,5,0.01
2015-1-1,49.4,36.6,23.9,36.0,27.2,20.8,90,71,40,30.39,30.23,2,0,9,0.00
2015-1-2,53.6,46.7,41.3,42.4,39.0,35.4,89,75,62,30.40,30.23,0,0,2,0.00